Date String (YYYY-MM-DD hh:mm:ss) UTC,Instrument flags,Ambient pressure (hPa),Sample flow (lpm),Bypass flow (lpm),Sample temperature (°C),Ambient temperature (°C),ASC tube jacket temperature (°C),LED temperature (°C),Box temperature (°C),Sample RH (%),Span deviation,Mass concentration (μg/m³),Mass concentration (μg/m³),Mass concentration (μg/m³)
DateTimeUTC,F1_M11,P_M11,Q1_M11,Q2_M11,T1_M11,T2_M11,T3_M11,T4_M11,T5_M11,U1_M11,ZSPAN_M11,X0_M11,X2_M11,X1_M11
2022-03-21 05:00:00,,0817.0,4.99,0.00,28.5,27.5,00.0,37.5,30.1,08.4,0000.0,0010.23,0004.13,0002.34
2022-03-21 05:01:00,,0817.0,5.00,0.00,28.5,27.5,00.0,37.5,30.2,08.5,0000.0,0010.30,0004.13,0002.34
2022-03-21 05:02:00,,0817.0,4.99,0.00,28.5,27.5,00.0,37.5,30.2,08.5,0000.0,0010.47,0004.12,0002.31
2022-03-21 05:03:00,,0817.1,5.01,0.00,28.5,27.5,00.0,37.5,30.2,08.8,0000.0,0010.54,0004.12,0002.29
2022-03-21 05:04:00,,0817.1,4.99,0.00,28.5,27.5,00.0,37.5,30.2,08.9,0000.0,0010.50,0004.12,0002.28
2022-03-21 05:05:00,,0817.1,5.00,0.00,28.5,27.5,00.0,37.5,30.2,09.0,0000.0,0010.23,0004.06,0002.29
2022-03-21 05:06:00,,0817.1,5.00,0.00,28.5,27.5,00.0,37.5,30.2,09.0,0000.0,0009.64,0004.03,0002.29
2022-03-21 05:07:00,,0817.1,4.99,0.00,28.5,27.5,00.0,37.5,30.2,09.3,0000.0,0009.27,0004.05,0002.28
2022-03-21 05:08:00,,0817.1,5.01,0.00,28.5,27.5,00.0,37.5,30.2,09.0,0000.0,0009.24,0004.08,0002.26
2022-03-21 05:09:00,,0817.0,5.01,0.00,28.4,27.5,00.0,37.5,30.2,08.7,0000.0,0009.39,0004.13,0002.25
2022-03-21 05:10:00,,0817.1,4.99,0.00,28.4,27.4,00.0,37.5,30.2,08.4,0000.0,0009.55,0004.18,0002.24
2022-03-21 05:11:00,,0817.1,5.02,0.00,28.4,27.4,00.0,37.5,30.1,08.3,0000.0,0009.58,0004.16,0002.22
2022-03-21 05:12:00,,0817.1,4.99,0.00,28.4,27.4,00.0,37.5,30.1,08.3,0000.0,0009.45,0004.12,0002.22
2022-03-21 05:13:00,,0817.1,5.01,0.00,28.4,27.4,00.0,37.5,30.1,08.4,0000.0,0009.22,0004.12,0002.22
2022-03-21 05:14:00,,0817.1,4.99,0.00,28.4,27.4,00.0,37.5,30.1,08.4,0000.0,0009.15,0004.13,0002.22
2022-03-21 05:15:00,,0817.1,4.99,0.00,28.4,27.4,00.0,37.5,30.1,08.5,0000.0,0009.21,0004.13,0002.23
2022-03-21 05:16:00,,0817.1,5.00,0.00,28.4,27.4,00.0,37.5,30.1,08.3,0000.0,0009.28,0004.13,0002.23
2022-03-21 05:17:00,,0817.2,4.99,0.00,28.4,27.4,00.0,37.5,30.1,08.5,0000.0,0009.19,0004.10,0002.22
2022-03-21 05:18:00,,0817.1,5.01,0.00,28.4,27.4,00.0,37.4,30.1,08.4,0000.0,0009.22,0004.08,0002.24
2022-03-21 05:19:00,,0817.2,4.99,0.00,28.4,27.4,00.0,37.4,30.1,08.4,0000.0,0009.35,0004.08,0002.26
2022-03-21 05:20:00,,0817.2,5.02,0.00,28.4,27.4,00.0,37.4,30.1,08.3,0000.0,0009.60,0004.08,0002.27
2022-03-21 05:21:00,,0817.2,4.99,0.00,28.4,27.4,00.0,37.4,30.1,08.3,0000.0,0009.51,0004.03,0002.27
2022-03-21 05:22:00,,0817.2,5.00,0.00,28.4,27.4,00.0,37.4,30.1,08.3,0000.0,0009.58,0004.06,0002.27
2022-03-21 05:23:00,,0817.2,5.01,0.00,28.4,27.4,00.0,37.4,30.1,08.4,0000.0,0009.89,0004.10,0002.27
2022-03-21 05:24:00,,0817.2,4.99,0.00,28.4,27.4,00.0,37.4,30.1,08.3,0000.0,0009.98,0004.08,0002.26
2022-03-21 05:25:00,,0817.1,5.01,0.00,28.4,27.4,00.0,37.4,30.1,08.2,0000.0,0010.05,0004.10,0002.27
2022-03-21 05:26:00,,0817.2,5.01,0.00,28.4,27.4,00.0,37.4,30.0,08.1,0000.0,0010.47,0004.14,0002.26
2022-03-21 05:27:00,,0817.2,4.99,0.00,28.3,27.4,00.0,37.4,30.0,08.1,0000.0,0010.48,0004.13,0002.25
2022-03-21 05:28:00,,0817.2,5.00,0.00,28.3,27.4,00.0,37.4,30.0,08.0,0000.0,0010.51,0004.13,0002.25
2022-03-21 05:29:00,,0817.2,5.00,0.00,28.3,27.4,00.0,37.4,30.0,08.0,0000.0,0010.49,0004.15,0002.25
2022-03-21 05:30:00,,0817.2,4.99,0.00,28.3,27.4,00.0,37.4,30.0,08.2,0000.0,0010.43,0004.14,0002.24
2022-03-21 05:31:00,,0817.2,5.00,0.00,28.3,27.3,00.0,37.4,30.0,08.1,0000.0,0010.57,0004.12,0002.25
2022-03-21 05:32:00,,0817.2,5.01,0.00,28.3,27.3,00.0,37.4,30.0,08.0,0000.0,0010.59,0004.16,0002.26
2022-03-21 05:33:00,,0817.1,4.99,0.00,28.3,27.3,00.0,37.4,30.0,08.1,0000.0,0010.60,0004.18,0002.26
2022-03-21 05:34:00,,0817.1,4.99,0.00,28.3,27.3,00.0,37.4,30.0,08.1,0000.0,0010.39,0004.21,0002.26
2022-03-21 05:35:00,,0817.2,5.01,0.00,28.3,27.3,00.0,37.4,30.0,08.1,0000.0,0010.42,0004.26,0002.28
2022-03-21 05:36:00,,0817.1,4.98,0.00,28.3,27.3,00.0,37.4,30.0,08.1,0000.0,0010.35,0004.23,0002.29
2022-03-21 05:37:00,,0817.2,5.00,0.00,28.3,27.3,00.0,37.4,30.0,08.1,0000.0,0009.90,0004.19,0002.29
2022-03-21 05:38:00,,0817.1,5.02,0.00,28.3,27.3,00.0,37.3,30.0,08.1,0000.0,0009.79,0004.19,0002.30
2022-03-21 05:39:00,,0817.2,4.98,0.00,28.3,27.3,00.0,37.3,30.0,08.0,0000.0,0009.82,0004.19,0002.29
2022-03-21 05:40:00,,0817.1,4.99,0.00,28.3,27.3,00.0,37.3,30.0,08.0,0000.0,0009.89,0004.21,0002.31
2022-03-21 05:41:00,,0817.1,5.00,0.00,28.3,27.3,00.0,37.3,30.0,08.0,0000.0,0009.93,0004.19,0002.31
2022-03-21 05:42:00,,0817.1,5.00,0.00,28.3,27.3,00.0,37.3,30.0,08.0,0000.0,0009.48,0004.19,0002.33
2022-03-21 05:43:00,,0817.1,4.99,0.00,28.2,27.3,00.0,37.3,30.0,08.0,0000.0,0009.60,0004.19,0002.32
2022-03-21 05:44:00,,0817.2,5.01,0.00,28.2,27.3,00.0,37.3,29.9,08.1,0000.0,0009.94,0004.19,0002.32
2022-03-21 05:45:00,,0817.2,5.00,0.00,28.2,27.3,00.0,37.3,29.9,08.3,0000.0,0010.24,0004.17,0002.33
2022-03-21 05:46:00,,0817.2,5.02,0.00,28.2,27.3,00.0,37.3,29.9,08.2,0000.0,0010.24,0004.11,0002.33
2022-03-21 05:47:00,,0817.2,4.98,0.00,28.2,27.3,00.0,37.3,30.0,08.1,0000.0,0010.55,0004.10,0002.33
2022-03-21 05:48:00,,0817.2,5.01,0.00,28.2,27.3,00.0,37.3,29.9,08.1,0000.0,0010.60,0004.11,0002.33
2022-03-21 05:49:00,,0817.3,5.00,0.00,28.2,27.3,00.0,37.3,29.9,08.1,0000.0,0010.63,0004.08,0002.34
2022-03-21 05:50:00,,0817.2,4.98,0.00,28.2,27.3,00.0,37.3,29.9,08.1,0000.0,0010.60,0004.05,0002.32
2022-03-21 05:51:00,,0817.3,5.02,0.00,28.2,27.3,00.0,37.3,30.0,08.1,0000.0,0010.59,0004.04,0002.31
2022-03-21 05:52:00,,0817.3,4.99,0.00,28.2,27.3,00.0,37.3,30.0,08.2,0000.0,0010.59,0004.06,0002.29
2022-03-21 05:53:00,,0817.3,5.02,0.00,28.2,27.3,00.0,37.3,30.0,08.2,0000.0,0010.48,0004.05,0002.26
2022-03-21 05:54:00,,0817.3,5.00,0.00,28.2,27.3,00.0,37.3,30.0,08.2,0000.0,0010.18,0004.01,0002.25
2022-03-21 05:55:00,,0817.3,5.01,0.00,28.2,27.3,00.0,37.3,30.0,08.2,0000.0,0010.11,0004.01,0002.25
2022-03-21 05:56:00,,0817.3,5.00,0.00,28.2,27.3,00.0,37.3,29.9,08.2,0000.0,0010.06,0004.00,0002.26
2022-03-21 05:57:00,,0817.3,4.99,0.00,28.2,27.3,00.0,37.3,30.0,08.2,0000.0,0009.77,0003.99,0002.25
2022-03-21 05:58:00,,0817.3,5.01,0.00,28.2,27.3,00.0,37.3,30.0,08.2,0000.0,0009.41,0003.98,0002.25
2022-03-21 05:59:00,,0817.3,5.00,0.00,28.2,27.3,00.0,37.3,29.9,08.2,0000.0,0009.41,0003.96,0002.25
